Location: Blangy-Tronville
(49.8790°N, 2.4226°E)
Time: 21:38:35
(UTC+00:00)

USA 281 - Pass Details

Date: 18 November 2025
Orbit: 1079 x 1080 km, 106.0° (Epoch: 27 November)

Event Time Altitude Azimuth Distance (km) Brightness Sun altitude
Exits shadow 19:58:23 51° 278° (W) 1,335 3.8 -37.5°
Drops below altitude 10° 20:03:57 10° 327° (NNW) 2,931 5.9 -38.4°
Sets 20:06:33 0° 332° (NNW) 3,891 6.7 -38.8°
